{"data":{"norad_id":58251,"intl_designator":"2023-171X","name":"STARLINK-30881","alt_names":[],"object_type":"PAYLOAD","status":"ACTIVE","operator":null,"country":"US","launch_date":"2023-11-08","launch_site_code":"AFETR","launch_vehicle":null,"mission":null,"orbit_class":"UNKNOWN","rcs_meters":null,"size_class":null,"mass_kg":null,"dimensions":null,"purposes":["comms"],"wikipedia_slug":null,"has_3d_model":false,"image_url":null,"decayed_at":null,"tle_current":{"epoch":"2026-09-20T06:42:25.637760Z","epoch_age_seconds":162747,"freshness":"FRESH","line1":"1 58251U 23171X   26263.27946340  .00000633  00000+0  32517-4 0  9992","line2":"2 58251  43.0022 266.2743 0001385 270.9263  89.1430 15.27578156159490","mean_motion":15.27578156,"eccentricity":0.0001385,"inclination_deg":43.0022,"raan_deg":266.2743,"arg_perigee_deg":270.9263,"mean_anomaly_deg":89.143,"bstar":3.2517e-5,"rev_number":15949,"period_min":94.266862506772,"perigee_km":482.10434260554,"apogee_km":484.00489268363,"semimajor_km":6861.1916176446,"source":"CELESTRAK","updated_at":"2026-09-21T09:00:33.840375Z"}}}